Temp
15 15 15 15 15 15 15 14 13 13 13 13 13 13 12 12 12 12 12 12 12 11 11 11 10 10 10 10 10 10 9 10 10 9 10 9 9 9 9 9 9 9 9 9
15 16 15 15 15 15 15 15 14 13 13 13 13 14 13 13 13 13 12 12 12 12 11 11 11 10 10 10 10 9 9 9 9 10 10 10 10 10 10 10 9 9 9 9
15 16 16 16 16 15 16 15 15 15 13 13 14 14 13 13 13 13 13 13 12 12 12 12 11 11 11 10 10 10 9 9 9 10 10 9 9 9 9 9 9 9 9 9
15 16 16 16 16 16 16 16 15 15 14 13 13 13 15 14 13 13 14 13 13 13 13 12 12 11 11 10 10 9 10 9 9 9 9 10 10 9 10 9 9 9 9 9
16 16 17 17 17 17 16 15 15 14 14 13 13 13 15 15 14 14 14 14 14 13 13 13 12 12 12 11 11 10 10 10 9 10 10 10 10 10 10 10 9 9 9 10
16 16 16 16 17 16 16 16 14 14 14 13 13 13 15 15 15 14 15 14 14 14 14 14 13 13 12 12 11 11 10 9 9 9 10 10 10 10 10 10 10 10 10 10
16 16 16 16 16 16 16 16 13 12 12 11 13 13 16 15 16 15 15 15 15 15 14 14 14 13 12 12 11 11 10 10 9 10 10 10 10 10 10 10 10 10 10 10
16 16 17 17 17 17 16 16 15 11 8 12 13 14 16 16 16 15 15 15 15 15 15 14 14 13 13 12 12 11 11 11 11 10 10 10 10 10 10 10 10 10 10 10
16 16 17 17 17 17 15 15 16 15 12 13 15 16 16 16 16 16 16 15 15 15 15 15 14 14 13 13 12 12 11 12 12 12 12 12 11 11 11 11 11 10 10 10
17 17 17 17 17 16 17 16 16 16 12 14 14 16 17 16 16 16 16 16 16 16 16 15 15 14 14 14 13 13 13 13 12 12 12 12 12 12 12 12 12 13 12 12
16 17 17 16 16 17 16 16 16 17 16 12 11 16 17 17 17 16 16 16 17 16 16 16 15 15 15 15 15 14 14 13 13 13 13 12 13 12 12 12 11 11 11 10
16 16 17 17 17 16 17 17 16 18 16 16 17 17 18 17 17 17 16 16 17 16 16 16 16 16 15 15 15 15 14 14 13 13 12 12 12 11 11 11 10 10 10 10
16 16 16 16 16 17 18 17 18 18 18 18 17 18 18 18 17 17 17 17 16 16 16 16 15 15 14 14 14 13 13 13 12 12 11 11 11 10 11 11 11 10 10 10
16 16 16 17 17 18 19 18 18 18 18 18 18 18 18 18 17 17 17 17 16 16 16 16 15 15 14 14 14 13 13 12 12 12 11 11 11 11 11 11 11 11 11 11
16 16 16 17 17 18 18 18 19 18 19 19 19 19 18 18 18 17 17 17 17 16 16 15 15 15 14 14 13 14 14 13 12 12 12 11 12 12 12 12 12 11 11 11
16 16 16 17 17 18 18 18 19 19 18 19 19 19 19 18 18 18 17 17 17 16 16 15 15 14 14 13 13 13 13 13 13 13 12 12 12 12 12 11 11 11 11 10
15 16 16 17 18 18 17 18 18 19 19 19 19 19 19 19 18 18 18 17 17 16 16 15 14 14 13 14 14 14 13 13 13 12 12 11 11 11 11 11 11 10 10 10
15 16 16 17 18 13 18 19 18 19 19 19 19 19 19 19 19 18 17 17 17 16 15 15 14 14 14 14 14 14 13 13 12 12 12 12 12 11 11 11 10 10 10 10
15 15 15 16 16 18 18 19 19 19 20 20 19 19 19 19 18 18 17 17 16 15 15 15 15 14 14 14 14 14 13 13 12 12 12 11 11 11 10 10 9 9 9 9
15 16 15 16 16 15 19 19 20 20 19 20 19 19 19 18 18 18 17 16 15 15 15 15 15 14 14 14 14 13 12 12 12 11 11 11 10 10 9 9 9 9 9 8
15 15 15 16 17 18 19 19 19 18 20 20 20 19 19 19 19 18 18 17 15 15 15 15 15 14 14 14 13 13 12 11 11 11 11 10 10 9 8 8 8 8 8 8
16 16 14 16 18 18 19 19 19 20 20 20 20 20 19 19 19 18 18 18 16 15 15 14 14 14 14 14 13 13 12 11 11 11 10 10 9 8 8 8 7 7 8 8
17 17 17 17 18 19 19 20 20 20 20 20 20 20 18 19 18 19 18 17 16 15 15 14 14 14 14 14 13 12 11 11 11 10 10 9 8 8 7 7 7 7 7 7
17 18 18 18 18 18 19 20 20 20 21 20 20 20 19 19 19 18 18 17 16 15 15 15 14 14 14 13 13 12 11 11 10 10 9 9 8 7 7 7 6 6 6 6
18 18 18 18 18 19 19 20 20 20 20 20 20 20 19 19 19 18 17 16 16 15 15 15 14 14 14 13 13 12 12 11 10 10 9 8 8 7 6 6 6 6 6 6
18 18 18 18 19 19 19 20 20 19 19 20 20 19 19 19 18 18 17 16 15 15 15 15 14 14 13 13 13 13 12 11 10 10 9 8 7 6 6 6 6 6 6 6
Height
3169 3172 3171 3172 3174 3174 3173 3176 3178 3180 3181 3183 3185 3186 3188 3188 3188 3189 3191 3192 3193 3194 3195 3196 3196 3197 3198 3199 3200 3200 3200 3200 3200 3200 3201 3202 3204 3205 3206 3207 3209 3210 3210 3210
3170 3169 3172 3173 3175 3175 3174 3174 3176 3179 3181 3185 3186 3187 3188 3189 3190 3191 3192 3193 3195 3195 3197 3198 3198 3198 3199 3199 3200 3201 3201 3202 3201 3202 3201 3203 3204 3205 3205 3207 3209 3208 3209 3209
3167 3169 3170 3171 3173 3173 3174 3176 3176 3177 3180 3184 3187 3188 3188 3189 3190 3191 3191 3193 3195 3196 3197 3198 3200 3201 3200 3200 3202 3201 3202 3202 3202 3202 3203 3204 3204 3205 3206 3207 3208 3209 3210 3210
3167 3168 3169 3170 3170 3171 3173 3176 3177 3177 3179 3183 3186 3187 3187 3188 3189 3189 3190 3193 3195 3196 3198 3199 3201 3202 3201 3201 3202 3203 3202 3202 3203 3204 3204 3205 3206 3206 3207 3207 3209 3209 3210 3211
3167 3167 3168 3168 3170 3171 3175 3173 3176 3178 3181 3183 3185 3186 3184 3186 3187 3188 3189 3192 3193 3195 3197 3200 3201 3202 3202 3202 3202 3203 3204 3204 3204 3205 3206 3206 3206 3207 3208 3209 3208 3209 3210 3210
3166 3166 3166 3167 3168 3169 3173 3174 3177 3181 3183 3184 3183 3185 3181 3182 3186 3188 3189 3191 3193 3195 3197 3199 3200 3202 3202 3203 3203 3203 3204 3204 3204 3206 3207 3207 3207 3207 3207 3208 3208 3208 3208 3208
3162 3164 3166 3166 3168 3169 3171 3172 3178 3183 3183 3183 3182 3185 3180 3181 3185 3188 3190 3191 3194 3195 3198 3199 3200 3202 3203 3203 3203 3204 3204 3205 3206 3206 3207 3207 3207 3207 3207 3208 3208 3208 3209 3208
3161 3163 3163 3164 3165 3167 3169 3171 3172 3180 3184 3180 3182 3181 3179 3180 3183 3186 3190 3191 3194 3195 3197 3199 3200 3202 3203 3204 3204 3204 3205 3205 3205 3206 3206 3206 3206 3207 3207 3208 3209 3209 3208 3207
3157 3160 3160 3161 3162 3165 3167 3169 3171 3173 3177 3178 3180 3179 3180 3181 3184 3187 3189 3192 3194 3195 3197 3198 3200 3202 3203 3204 3204 3204 3204 3205 3205 3206 3207 3207 3207 3207 3207 3206 3206 3205 3204 3202
3155 3157 3157 3158 3160 3163 3165 3170 3171 3169 3178 3179 3179 3178 3180 3182 3184 3187 3189 3192 3193 3196 3197 3199 3200 3202 3203 3204 3204 3204 3204 3204 3205 3205 3206 3206 3205 3204 3204 3203 3202 3201 3198 3198
3152 3154 3157 3156 3157 3158 3163 3165 3168 3168 3171 3174 3181 3179 3181 3183 3185 3187 3190 3192 3195 3197 3199 3200 3201 3202 3202 3203 3203 3203 3203 3204 3203 3203 3204 3203 3203 3203 3202 3202 3200 3198 3195 3196
3148 3152 3152 3153 3156 3159 3163 3165 3167 3163 3169 3170 3173 3178 3180 3183 3186 3188 3190 3193 3195 3197 3199 3200 3201 3202 3203 3203 3203 3203 3203 3203 3203 3202 3203 3202 3202 3201 3201 3198 3197 3195 3193 3191
3143 3148 3150 3152 3156 3156 3158 3160 3162 3162 3164 3167 3171 3175 3178 3181 3186 3188 3191 3193 3196 3198 3199 3200 3202 3203 3203 3204 3204 3204 3203 3203 3203 3202 3202 3201 3200 3199 3198 3193 3192 3191 3189 3187
3139 3143 3145 3147 3148 3153 3155 3156 3158 3159 3160 3164 3169 3173 3176 3179 3184 3187 3190 3193 3195 3197 3199 3200 3202 3203 3203 3203 3203 3203 3203 3202 3201 3200 3199 3198 3197 3195 3194 3191 3188 3186 3184 3182
3132 3137 3142 3145 3147 3151 3152 3152 3155 3157 3158 3161 3165 3171 3176 3178 3182 3186 3189 3192 3194 3196 3199 3200 3202 3203 3203 3203 3203 3202 3201 3200 3199 3197 3196 3194 3193 3191 3189 3187 3184 3182 3179 3175
3129 3133 3138 3141 3144 3147 3148 3148 3150 3152 3157 3159 3164 3168 3173 3177 3180 3183 3187 3190 3192 3195 3198 3200 3201 3202 3202 3202 3201 3200 3199 3197 3195 3193 3192 3190 3189 3187 3185 3183 3181 3178 3176 3174
3120 3126 3133 3135 3139 3142 3142 3143 3147 3150 3153 3157 3160 3164 3169 3173 3177 3180 3184 3188 3191 3194 3197 3198 3199 3199 3199 3199 3198 3196 3194 3193 3191 3190 3189 3188 3186 3184 3182 3179 3177 3174 3172 3170
3113 3120 3127 3132 3133 3134 3136 3140 3144 3145 3149 3154 3157 3162 3167 3171 3175 3179 3183 3187 3190 3193 3195 3196 3196 3196 3196 3195 3194 3192 3191 3190 3189 3188 3187 3186 3183 3181 3179 3177 3175 3172 3170 3168
3108 3114 3120 3123 3128 3131 3129 3133 3137 3139 3144 3147 3153 3158 3163 3168 3173 3178 3181 3185 3189 3191 3193 3194 3194 3195 3194 3193 3192 3191 3190 3188 3187 3187 3185 3184 3182 3180 3178 3175 3174 3172 3169 3167
3103 3109 3116 3117 3122 3124 3128 3131 3134 3137 3139 3143 3148 3153 3159 3165 3170 3174 3178 3183 3185 3188 3190 3192 3193 3194 3193 3192 3191 3190 3189 3187 3186 3185 3183 3182 3180 3179 3177 3176 3174 3171 3169 3166
3093 3099 3102 3108 3114 3118 3123 3127 3129 3130 3137 3140 3144 3150 3155 3161 3165 3171 3176 3179 3184 3187 3190 3192 3192 3192 3191 3190 3188 3187 3186 3186 3185 3183 3182 3180 3178 3177 3176 3174 3172 3170 3169 3167
3083 3090 3095 3104 3108 3112 3115 3120 3121 3129 3133 3139 3142 3147 3153 3159 3164 3171 3174 3178 3182 3186 3188 3190 3191 3191 3190 3188 3187 3186 3185 3184 3183 3181 3180 3178 3177 3176 3174 3173 3172 3170 3167 3165
3079 3081 3087 3094 3102 3107 3111 3116 3120 3122 3127 3133 3139 3143 3150 3156 3162 3169 3173 3177 3181 3184 3187 3188 3189 3190 3190 3188 3187 3185 3184 3183 3181 3180 3178 3176 3175 3174 3172 3171 3169 3167 3166 3163
3070 3078 3085 3093 3098 3103 3109 3113 3115 3116 3122 3129 3135 3140 3146 3153 3160 3166 3171 3174 3178 3182 3184 3187 3188 3189 3189 3188 3186 3185 3183 3181 3180 3178 3177 3175 3173 3171 3170 3169 3167 3166 3164 3161
3065 3073 3078 3085 3094 3099 3104 3109 3112 3114 3119 3125 3132 3136 3143 3151 3158 3164 3168 3172 3176 3179 3182 3185 3186 3187 3187 3187 3185 3184 3182 3180 3179 3177 3175 3173 3171 3170 3169 3167 3166 3164 3162 3160
3058 3066 3074 3080 3088 3094 3102 3106 3108 3112 3117 3122 3127 3134 3142 3150 3156 3161 3166 3171 3174 3177 3180 3182 3183 3185 3185 3184 3183 3182 3180 3179 3177 3174 3172 3171 3170 3168 3167 3166 3164 3162 3160 3158
Wind_Speed
6 7 4 2 3 1 12 12 16 9 9 10 5 6 6 5 6 8 6 4 7 6 6 9 10 3 9 10 10 12 12 10 9 6 5 6 7 6 5 5 7 7 6 6
11 10 4 9 7 6 10 17 14 15 9 11 7 11 7 7 8 7 3 5 8 5 7 9 12 10 6 7 9 11 12 10 10 6 9 6 3 5 2 1 4 2 2 3
15 7 6 10 10 16 10 7 17 17 17 13 10 11 11 10 7 6 6 5 3 5 6 5 8 7 6 7 5 10 12 11 12 7 8 7 5 4 2 2 3 2 0 1
14 14 14 11 9 15 12 8 8 12 21 9 16 6 17 13 10 9 8 7 6 8 8 9 7 7 5 5 3 6 12 12 10 9 7 5 5 3 2 3 3 1 1 2
17 4 5 1 4 8 10 10 12 10 16 10 15 2 5 18 16 12 9 7 3 2 1 3 4 5 4 6 7 4 5 10 8 5 6 4 4 3 3 0 1 1 1 2
18 12 3 6 9 11 11 10 16 9 9 2 12 4 5 18 19 14 13 8 3 1 2 3 3 2 1 2 4 6 3 5 6 3 2 2 3 3 2 2 2 1 3 4
22 22 16 14 10 9 11 12 4 1 0 4 9 8 6 2 19 14 10 6 5 3 5 5 5 4 2 3 4 4 5 3 3 1 1 3 3 3 2 3 4 5 6 7
23 15 22 13 17 15 14 20 8 6 5 5 8 6 1 11 15 16 14 10 6 6 8 7 7 5 5 3 3 2 1 2 2 0 3 3 3 2 2 3 4 6 7 9
19 20 10 17 19 18 20 27 9 6 7 4 5 4 10 13 18 15 12 8 11 15 12 11 9 8 6 6 3 3 2 2 3 3 2 3 3 3 4 5 5 7 9 13
12 11 12 20 18 24 18 19 6 5 4 2 2 5 14 16 18 17 12 11 20 15 16 15 11 9 6 5 4 3 2 2 2 2 1 1 4 5 7 8 10 13 15 15
22 9 10 17 19 24 25 19 11 9 6 6 3 8 19 20 19 18 16 18 17 16 19 16 12 9 5 3 4 4 4 4 4 5 6 7 8 8 10 12 14 16 19 17
33 17 9 24 16 15 17 20 18 10 8 7 6 10 20 18 19 18 18 15 15 15 13 11 9 8 5 2 2 4 5 5 7 8 8 8 10 12 14 16 17 18 21 22
37 20 15 16 19 18 12 19 23 19 17 15 9 10 23 21 21 20 20 19 17 14 12 10 8 8 6 3 3 3 5 7 8 10 11 13 15 17 18 21 21 21 22 23
28 30 29 20 18 13 15 19 20 15 22 19 17 12 26 21 24 22 21 22 21 10 7 6 5 3 1 4 9 10 10 12 14 16 16 18 19 19 20 21 24 26 25 24
32 30 34 29 27 18 19 22 23 22 19 22 18 22 21 21 22 22 23 23 21 15 9 3 1 3 6 7 12 12 14 16 18 19 19 19 19 19 19 19 21 22 23 25
25 27 26 33 31 24 19 24 33 29 20 19 18 26 20 23 22 25 24 23 22 19 13 8 8 9 9 13 15 15 17 17 17 15 15 15 16 16 18 19 20 21 20 19
22 32 31 29 30 27 24 22 34 30 26 21 21 28 27 24 26 26 25 23 21 18 11 10 10 11 13 13 15 16 16 14 13 12 12 12 13 16 17 18 18 16 14 14
25 26 29 29 23 5 23 24 27 26 33 30 28 25 26 25 23 25 26 17 17 14 12 12 10 10 11 13 15 16 14 12 11 10 11 12 14 15 16 15 15 15 14 14
33 26 28 30 22 11 26 25 25 33 33 34 30 28 28 28 25 25 26 20 13 14 14 9 7 9 10 12 12 11 10 9 8 9 10 11 13 13 14 14 13 13 13 13
31 31 30 25 25 15 18 23 22 19 35 31 28 27 33 31 29 29 25 23 19 15 9 7 6 5 5 5 5 5 4 5 7 10 11 12 12 11 10 10 10 11 11 12
37 35 39 35 26 23 29 21 25 26 27 28 24 24 33 34 23 25 25 19 17 12 9 6 5 4 4 5 5 6 5 6 8 9 11 12 11 10 10 10 10 11 12 13
42 39 32 38 27 13 26 32 33 27 21 26 25 26 36 36 28 26 17 15 19 17 13 9 8 11 12 12 10 7 6 7 8 10 11 12 11 12 11 12 12 13 13 14
41 45 33 36 32 12 23 25 25 25 28 32 28 29 38 35 31 22 18 18 22 18 12 6 4 7 13 16 13 9 8 8 10 11 12 12 12 12 11 12 13 14 14 15
42 43 34 31 33 38 26 19 23 24 24 28 29 30 31 36 29 26 21 22 25 17 12 6 1 3 9 14 16 12 9 9 10 12 12 12 12 11 12 13 16 16 15 14
42 39 37 35 31 31 26 26 22 25 29 30 32 35 36 36 29 29 23 28 22 17 14 9 5 2 5 10 14 14 12 11 12 13 13 12 12 12 13 15 15 15 15 15
40 41 36 34 34 33 26 25 19 26 20 27 36 37 37 32 29 31 24 27 21 20 15 11 7 3 4 6 10 14 13 13 14 15 14 14 13 13 14 14 14 14 14 16
Wind_Direction
222 250 172 146 243 342 201 199 176 195 206 212 239 156 177 156 168 126 120 118 99 68 62 108 114 134 108 87 82 77 72 61 57 78 130 178 169 196 195 193 220 224 223 231
225 246 297 255 273 210 168 187 181 186 188 188 169 142 167 162 128 119 110 119 121 113 121 112 104 109 130 99 85 82 80 66 48 65 87 104 143 142 205 213 262 238 266 263
234 246 327 269 240 226 204 186 191 192 184 196 166 175 191 208 205 172 152 144 155 106 104 104 99 104 114 112 62 74 78 73 57 51 52 65 75 77 62 159 167 181 227 298
243 252 268 279 219 226 231 220 172 187 179 164 183 187 198 201 225 229 171 206 165 109 105 116 109 88 84 81 110 31 60 67 62 50 44 61 82 112 170 175 176 183 304 299
221 265 170 217 279 266 231 214 197 162 178 161 183 175 207 204 221 205 177 183 162 281 199 112 102 100 36 40 55 6 33 55 64 53 54 71 69 69 148 127 26 342 349 311
214 172 291 285 313 239 214 208 174 121 173 229 192 221 242 205 190 181 174 199 203 218 161 134 106 108 39 58 38 42 24 358 42 51 98 94 106 115 135 174 183 243 274 271
220 229 254 267 262 193 202 186 116 24 347 218 184 217 263 187 180 164 165 168 172 187 153 148 135 133 123 99 96 70 43 56 33 5 217 180 165 162 203 247 265 278 291 302
213 233 238 239 238 228 205 176 162 178 182 175 168 234 23 161 171 157 161 176 163 177 178 176 137 140 137 158 111 88 345 77 85 211 230 241 243 227 241 276 297 305 306 303
202 229 228 228 234 227 207 197 236 128 121 129 182 249 130 149 152 169 174 161 163 172 177 169 154 140 149 162 140 96 152 115 77 60 23 333 324 318 304 303 303 288 284 279
198 211 234 221 225 223 229 202 200 154 126 151 201 174 155 155 161 161 166 160 170 177 168 171 165 158 154 175 180 208 226 167 149 118 71 295 259 260 271 278 279 291 285 298
207 200 213 202 203 216 205 217 211 163 161 142 145 184 161 153 148 167 157 158 150 150 154 170 172 177 170 188 215 228 239 235 226 243 241 258 274 287 302 303 303 300 297 306
209 215 214 206 200 204 222 221 223 184 184 148 146 177 175 169 150 157 164 166 165 168 170 178 182 176 174 209 276 300 298 295 300 308 307 309 305 303 303 297 298 302 305 305
210 211 225 234 233 245 242 236 230 234 192 177 152 162 173 184 187 175 174 169 162 162 168 169 145 126 118 82 25 337 315 310 305 305 309 306 305 303 301 301 303 305 307 308
221 216 221 211 208 224 239 225 221 206 175 179 195 177 189 191 193 189 190 188 186 178 163 140 117 101 14 343 335 325 316 310 306 304 302 301 301 303 304 301 302 303 306 307
211 221 221 233 240 248 267 225 205 206 206 198 207 202 190 195 201 193 192 191 195 202 208 171 218 283 291 293 297 299 295 294 294 294 293 294 297 301 301 302 307 313 315 315
220 214 225 234 237 239 261 219 209 217 216 226 218 209 204 203 206 204 200 204 209 213 219 234 254 268 279 281 287 290 294 294 296 298 304 309 312 312 312 313 312 311 313 315
206 221 216 227 232 238 242 227 215 227 231 227 214 209 209 208 209 213 207 211 218 220 233 245 257 269 278 287 295 301 305 309 314 320 319 316 315 315 316 318 321 326 333 338
205 214 221 225 222 190 239 238 231 245 239 239 230 217 208 209 211 213 208 220 219 221 233 239 255 279 292 298 302 305 309 314 319 323 321 322 325 326 328 333 339 344 346 351
207 202 210 211 202 215 235 237 235 232 229 233 236 222 216 209 204 203 206 210 215 219 215 230 266 285 289 294 298 301 305 312 322 326 328 333 335 337 339 343 346 345 349 351
208 213 205 210 208 215 213 222 222 227 229 231 227 219 210 203 197 197 198 197 193 192 195 230 261 269 279 289 293 300 322 339 339 336 342 346 346 344 345 346 344 343 342 346
206 211 208 218 210 225 223 213 207 202 219 211 220 205 205 204 206 192 193 202 187 186 184 152 109 78 45 22 8 357 350 347 344 345 347 347 345 346 348 348 350 350 351 353
207 202 207 210 206 217 221 222 223 225 234 219 191 197 201 205 205 196 205 216 192 177 157 129 82 57 47 37 21 7 357 350 349 347 347 347 348 349 350 352 352 351 352 349
212 214 203 212 204 206 212 216 228 233 220 200 199 185 204 209 202 199 216 221 190 174 168 148 89 43 38 37 30 14 358 350 346 344 347 348 347 346 346 345 344 343 340 340
210 216 217 210 213 221 221 221 227 195 197 204 205 186 192 207 202 201 214 213 193 189 183 195 201 17 28 27 24 16 359 345 340 341 343 342 339 336 338 339 339 340 339 338
204 207 207 209 197 206 209 218 221 197 198 202 197 194 193 202 201 208 212 205 194 199 194 204 223 320 7 14 16 12 359 346 339 338 335 332 332 331 330 332 336 336 337 340
193 199 195 195 196 201 196 199 196 187 192 201 199 191 195 203 200 207 209 200 202 200 200 214 220 263 331 4 11 5 358 347 338 332 327 328 333 328 326 330 331 332 335 339